MFF168 WAHS-WADD

Flight info

Callsign MFF168
Flight time 1h 1m
Altitude 35000
Route BA T3 MOVMO
Aircraft B738/M-SDE2E3FGHIRWXY/LB1

Departure

Time 2026-04-29 19:20
Airport Jenderal Ahmad Yani Airport (WAHS)

Arrival

Time 2026-04-29 20:21
Airport Denpasar I Gusti Ngurah Rai International Airport (WADD)
Time Latitude Longitude Altitude Speed Heading
2026-04-29 18:36 -6.96643 110.37358 100 ft 0 kts 40°
2026-04-29 19:09 -6.96653 110.37349 18 ft 2 kts 40°
2026-04-29 19:09 -6.96665 110.37339 18 ft 2 kts 38°
2026-04-29 19:10 -6.96678 110.37329 19 ft 2 kts 13°
2026-04-29 19:10 -6.96695 110.37328 19 ft 2 kts 349°
2026-04-29 19:10 -6.96710 110.37332 21 ft 2 kts 328°
2026-04-29 19:10 -6.96717 110.37337 19 ft 0 kts 312°
2026-04-29 19:12 -6.96716 110.37337 18 ft 0 kts 312°
2026-04-29 19:13 -6.96673 110.37284 18 ft 11 kts 310°
2026-04-29 19:13 -6.96626 110.37227 18 ft 9 kts 304°
2026-04-29 19:13 -6.96648 110.37173 17 ft 9 kts 222°
2026-04-29 19:13 -6.96696 110.37131 16 ft 10 kts 220°
2026-04-29 19:14 -6.96736 110.37099 13 ft 3 kts 218°
2026-04-29 19:14 -6.96740 110.37095 13 ft 0 kts 218°
2026-04-29 19:16 -6.96743 110.37093 12 ft 3 kts 218°
2026-04-29 19:16 -6.96788 110.37063 7 ft 14 kts 199°
2026-04-29 19:16 -6.96914 110.37150 4 ft 31 kts 130°
2026-04-29 19:17 -6.97063 110.37325 3 ft 33 kts 129°
2026-04-29 19:17 -6.97210 110.37499 3 ft 31 kts 130°
2026-04-29 19:17 -6.97345 110.37658 4 ft 29 kts 130°
2026-04-29 19:17 -6.97472 110.37810 6 ft 27 kts 131°
2026-04-29 19:18 -6.97593 110.37951 5 ft 26 kts 129°
2026-04-29 19:18 -6.97654 110.38026 5 ft 15 kts 123°
2026-04-29 19:18 -6.97688 110.38105 5 ft 8 kts 151°
2026-04-29 19:18 -6.97696 110.38105 5 ft 1 kts 191°
2026-04-29 19:19 -6.97698 110.38100 5 ft 1 kts 244°
2026-04-29 19:19 -6.97697 110.38088 5 ft 3 kts 277°
2026-04-29 19:19 -6.97687 110.38063 5 ft 7 kts 302°
2026-04-29 19:19 -6.97585 110.37940 5 ft 45 kts 311°
2026-04-29 19:20 -6.97188 110.37472 3 ft 129 kts 310°
2026-04-29 19:20 -6.96496 110.36635 378 ft 167 kts 310°
2026-04-29 19:20 -6.95760 110.35743 1340 ft 164 kts 317°
2026-04-29 19:20 -6.94801 110.35022 2019 ft 184 kts 335°
2026-04-29 19:21 -6.93440 110.34749 2284 ft 216 kts
2026-04-29 19:21 -6.91948 110.35164 2569 ft 235 kts 28°
2026-04-29 19:21 -6.90402 110.35961 2913 ft 259 kts 29°
2026-04-29 19:21 -6.88791 110.36753 3627 ft 267 kts 27°
2026-04-29 19:22 -6.87088 110.37539 4398 ft 271 kts 25°
2026-04-29 19:22 -6.85384 110.38284 4789 ft 266 kts 25°
2026-04-29 19:22 -6.83656 110.39012 4904 ft 271 kts 24°
2026-04-29 19:22 -6.81902 110.39731 4914 ft 273 kts 24°
2026-04-29 19:23 -6.80145 110.40439 4923 ft 271 kts 24°
2026-04-29 19:23 -6.78394 110.41136 4929 ft 270 kts 23°
2026-04-29 19:23 -6.76647 110.41829 4925 ft 270 kts 23°
2026-04-29 19:23 -6.74902 110.42517 4924 ft 269 kts 23°
2026-04-29 19:24 -6.73159 110.43204 4931 ft 269 kts 23°
2026-04-29 19:24 -6.71415 110.43890 4932 ft 270 kts 23°
2026-04-29 19:24 -6.69668 110.44577 4935 ft 270 kts 23°
2026-04-29 19:24 -6.67912 110.45267 4941 ft 271 kts 23°
2026-04-29 19:25 -6.66153 110.45957 4943 ft 272 kts 23°
2026-04-29 19:25 -6.64536 110.46906 4929 ft 269 kts 47°
2026-04-29 19:25 -6.63574 110.48495 5008 ft 269 kts 73°
2026-04-29 19:25 -6.63290 110.50358 5702 ft 272 kts 88°
2026-04-29 19:26 -6.63273 110.52264 6646 ft 273 kts 90°
2026-04-29 19:26 -6.63301 110.54182 7522 ft 276 kts 91°
2026-04-29 19:26 -6.63328 110.56128 8352 ft 281 kts 90°
2026-04-29 19:26 -6.63347 110.58107 9193 ft 285 kts 90°
2026-04-29 19:27 -6.63357 110.60119 10015 ft 289 kts 90°
2026-04-29 19:27 -6.63361 110.62156 10488 ft 307 kts 90°
2026-04-29 19:27 -6.63362 110.64428 10663 ft 333 kts 90°
2026-04-29 19:27 -6.63382 110.66818 11057 ft 347 kts 94°
2026-04-29 19:28 -6.63962 110.69150 11677 ft 353 kts 114°
2026-04-29 19:28 -6.65034 110.71381 12446 ft 355 kts 115°
2026-04-29 19:28 -6.66139 110.73619 13130 ft 359 kts 116°
2026-04-29 19:28 -6.67262 110.75885 13774 ft 364 kts 116°
2026-04-29 19:29 -6.68394 110.78177 14371 ft 367 kts 116°
2026-04-29 19:29 -6.69529 110.80491 14982 ft 370 kts 115°
2026-04-29 19:29 -6.70666 110.82818 15636 ft 372 kts 115°
2026-04-29 19:29 -6.71809 110.85167 16228 ft 375 kts 115°
2026-04-29 19:30 -6.72959 110.87534 16804 ft 379 kts 115°
2026-04-29 19:30 -6.74120 110.89929 17389 ft 382 kts 115°
2026-04-29 19:30 -6.75289 110.92341 17957 ft 385 kts 115°
2026-04-29 19:30 -6.76470 110.94777 18442 ft 389 kts 115°
2026-04-29 19:31 -6.77663 110.97232 18916 ft 392 kts 115°
2026-04-29 19:31 -6.78865 110.99708 19396 ft 395 kts 115°
2026-04-29 19:31 -6.80072 111.02198 19865 ft 398 kts 115°
2026-04-29 19:31 -6.81289 111.04711 20317 ft 401 kts 115°
2026-04-29 19:32 -6.82515 111.07243 20759 ft 404 kts 115°
2026-04-29 19:32 -6.83750 111.09795 21208 ft 407 kts 115°
2026-04-29 19:32 -6.84993 111.12365 21652 ft 410 kts 115°
2026-04-29 19:32 -6.86244 111.14952 22104 ft 412 kts 115°
2026-04-29 19:33 -6.87503 111.17553 22565 ft 415 kts 115°
2026-04-29 19:33 -6.88767 111.20168 23005 ft 417 kts 116°
2026-04-29 19:33 -6.90041 111.22804 23417 ft 419 kts 116°
2026-04-29 19:33 -6.91318 111.25447 23766 ft 422 kts 115°
2026-04-29 19:34 -6.92605 111.28117 24083 ft 425 kts 115°
2026-04-29 19:34 -6.93900 111.30797 24403 ft 427 kts 116°
2026-04-29 19:34 -6.95204 111.33492 24789 ft 428 kts 116°
2026-04-29 19:34 -6.96508 111.36188 25113 ft 430 kts 115°
2026-04-29 19:35 -6.97820 111.38903 25462 ft 432 kts 116°
2026-04-29 19:35 -6.99141 111.41638 25732 ft 436 kts 115°
2026-04-29 19:35 -7.00411 111.44410 26022 ft 439 kts 113°
2026-04-29 19:35 -7.01614 111.47241 26395 ft 439 kts 112°
2026-04-29 19:36 -7.02784 111.50081 26752 ft 440 kts 112°
2026-04-29 19:36 -7.03951 111.52939 27008 ft 444 kts 112°
2026-04-29 19:36 -7.05131 111.55818 27289 ft 446 kts 112°
2026-04-29 19:36 -7.06326 111.58713 27536 ft 449 kts 112°
2026-04-29 19:37 -7.07536 111.61629 27744 ft 454 kts 112°
2026-04-29 19:37 -7.08345 111.63570 27928 ft 455 kts 112°
2026-04-29 19:37 -7.09988 111.67505 28319 ft 457 kts 113°
2026-04-29 19:37 -7.11226 111.70464 28581 ft 459 kts 113°
2026-04-29 19:38 -7.12470 111.73436 28858 ft 461 kts 113°
2026-04-29 19:38 -7.13716 111.76414 29150 ft 462 kts 113°
2026-04-29 19:38 -7.14965 111.79400 29415 ft 464 kts 112°
2026-04-29 19:38 -7.16224 111.82413 29552 ft 469 kts 112°
2026-04-29 19:39 -7.17474 111.85402 29851 ft 469 kts 112°
2026-04-29 19:39 -7.18734 111.88422 30273 ft 466 kts 112°
2026-04-29 19:39 -7.19980 111.91419 30661 ft 463 kts 112°
2026-04-29 19:39 -7.21223 111.94411 30983 ft 463 kts 112°
2026-04-29 19:40 -7.22466 111.97397 31273 ft 463 kts 112°
2026-04-29 19:40 -7.23707 112.00373 31714 ft 459 kts 112°
2026-04-29 19:40 -7.24941 112.03328 32153 ft 456 kts 112°
2026-04-29 19:40 -7.26169 112.06270 32483 ft 456 kts 112°
2026-04-29 19:41 -7.27398 112.09215 32750 ft 457 kts 112°
2026-04-29 19:41 -7.28628 112.12163 33095 ft 456 kts 112°
2026-04-29 19:41 -7.29853 112.15101 33503 ft 454 kts 113°
2026-04-29 19:41 -7.31074 112.18027 33836 ft 453 kts 112°
2026-04-29 19:42 -7.32295 112.20958 34088 ft 454 kts 112°
2026-04-29 19:42 -7.34733 112.26807 34780 ft 450 kts 112°
2026-04-29 19:43 -7.37153 112.32617 34847 ft 451 kts 112°
2026-04-29 19:43 -7.39588 112.38464 34854 ft 455 kts 112°
2026-04-29 19:44 -7.42049 112.44379 34856 ft 460 kts 112°
2026-04-29 19:44 -7.44528 112.50338 34861 ft 461 kts 112°
2026-04-29 19:45 -7.46978 112.56229 34841 ft 451 kts 112°
2026-04-29 19:45 -7.49399 112.62053 34840 ft 451 kts 112°
2026-04-29 19:46 -7.51821 112.67882 34842 ft 451 kts 112°
2026-04-29 19:46 -7.54246 112.73724 34842 ft 452 kts 112°
2026-04-29 19:47 -7.56674 112.79572 34849 ft 453 kts 111°
2026-04-29 19:47 -7.59104 112.85427 34847 ft 453 kts 111°
2026-04-29 19:48 -7.61535 112.91292 34861 ft 453 kts 111°
2026-04-29 19:48 -7.63973 112.97153 34863 ft 453 kts 112°
2026-04-29 19:49 -7.66410 113.03016 34866 ft 453 kts 112°
2026-04-29 19:49 -7.68838 113.08877 34885 ft 453 kts 112°
2026-04-29 19:50 -7.71264 113.14739 34881 ft 453 kts 112°
2026-04-29 19:50 -7.73690 113.20602 34878 ft 453 kts 112°
2026-04-29 19:51 -7.76116 113.26468 34880 ft 453 kts 112°
2026-04-29 19:51 -7.78131 113.31342 34880 ft 453 kts 112°
2026-04-29 19:52 -7.80554 113.37205 34891 ft 453 kts 112°
2026-04-29 19:52 -7.83370 113.44022 34897 ft 453 kts 112°
2026-04-29 19:52 -7.84187 113.46000 34747 ft 455 kts 112°
2026-04-29 19:53 -7.85409 113.48960 34198 ft 456 kts 112°
2026-04-29 19:53 -7.86624 113.51904 33613 ft 455 kts 112°
2026-04-29 19:53 -7.87837 113.54842 33090 ft 452 kts 112°
2026-04-29 19:53 -7.89037 113.57752 32665 ft 447 kts 112°
2026-04-29 19:54 -7.91402 113.63484 31761 ft 440 kts 112°
2026-04-29 19:54 -7.92564 113.66304 32597 ft 441 kts 113°
2026-04-29 19:54 -7.93760 113.69205 31625 ft 450 kts 113°
2026-04-29 19:55 -7.94972 113.72144 29359 ft 456 kts 113°
2026-04-29 19:55 -7.96173 113.75061 29214 ft 442 kts 113°
2026-04-29 19:55 -7.97333 113.77879 29111 ft 428 kts 113°
2026-04-29 19:55 -7.98463 113.80623 28852 ft 419 kts 113°
2026-04-29 19:56 -7.99576 113.83326 28361 ft 417 kts 113°
2026-04-29 19:56 -8.00686 113.86023 27810 ft 416 kts 113°
2026-04-29 19:56 -8.01793 113.88711 27333 ft 413 kts 113°
2026-04-29 19:56 -8.02851 113.91392 26905 ft 410 kts 111°
2026-04-29 19:57 -8.03814 113.94087 26483 ft 406 kts 109°
2026-04-29 19:57 -8.04732 113.96769 26064 ft 403 kts 109°
2026-04-29 19:57 -8.05625 113.99403 25637 ft 401 kts 109°
2026-04-29 19:57 -8.06529 114.02053 25222 ft 398 kts 109°
2026-04-29 19:58 -8.07432 114.04682 24813 ft 395 kts 109°
2026-04-29 19:58 -8.08333 114.07288 24419 ft 392 kts 109°
2026-04-29 19:58 -8.09233 114.09880 24032 ft 390 kts 109°
2026-04-29 19:58 -8.10125 114.12443 23653 ft 387 kts 109°
2026-04-29 19:59 -8.11020 114.15012 23194 ft 385 kts 109°
2026-04-29 19:59 -8.11906 114.17554 22747 ft 383 kts 109°
2026-04-29 19:59 -8.12785 114.20078 22345 ft 379 kts 109°
2026-04-29 19:59 -8.13656 114.22581 21933 ft 376 kts 109°
2026-04-29 20:00 -8.14520 114.25062 21518 ft 374 kts 109°
2026-04-29 20:00 -8.15378 114.27528 21104 ft 371 kts 109°
2026-04-29 20:00 -8.16230 114.29977 20709 ft 368 kts 109°
2026-04-29 20:00 -8.17075 114.32406 20322 ft 366 kts 109°
2026-04-29 20:01 -8.17915 114.34820 19937 ft 363 kts 109°
2026-04-29 20:01 -8.18749 114.37218 19560 ft 361 kts 109°
2026-04-29 20:01 -8.19576 114.39598 19182 ft 358 kts 109°
2026-04-29 20:01 -8.20395 114.41955 18880 ft 353 kts 109°
2026-04-29 20:02 -8.21204 114.44282 18658 ft 349 kts 108°
2026-04-29 20:02 -8.21999 114.46572 18478 ft 343 kts 108°
2026-04-29 20:02 -8.22790 114.48849 18311 ft 345 kts 108°
2026-04-29 20:02 -8.23317 114.50369 18192 ft 348 kts 108°
2026-04-29 20:03 -8.24504 114.53433 17886 ft 352 kts 119°
2026-04-29 20:03 -8.26055 114.55338 17593 ft 352 kts 135°
2026-04-29 20:03 -8.27853 114.57014 17294 ft 351 kts 136°
2026-04-29 20:03 -8.29673 114.58659 16981 ft 351 kts 137°
2026-04-29 20:04 -8.31490 114.60301 16681 ft 350 kts 137°
2026-04-29 20:04 -8.33299 114.61948 16382 ft 350 kts 136°
2026-04-29 20:04 -8.35095 114.63596 16077 ft 349 kts 136°
2026-04-29 20:04 -8.36882 114.65245 15778 ft 348 kts 136°
2026-04-29 20:05 -8.38664 114.66895 15478 ft 347 kts 136°
2026-04-29 20:05 -8.40439 114.68540 15177 ft 345 kts 136°
2026-04-29 20:05 -8.42204 114.70176 14886 ft 344 kts 136°
2026-04-29 20:05 -8.43962 114.71806 14589 ft 343 kts 136°
2026-04-29 20:06 -8.45718 114.73434 14290 ft 341 kts 136°
2026-04-29 20:06 -8.47225 114.75261 13968 ft 339 kts 116°
2026-04-29 20:06 -8.47969 114.77500 13763 ft 336 kts 97°
2026-04-29 20:06 -8.48080 114.79841 13532 ft 332 kts 90°
2026-04-29 20:07 -8.48073 114.82163 13281 ft 329 kts 89°
2026-04-29 20:07 -8.48048 114.84465 13063 ft 326 kts 89°
2026-04-29 20:07 -8.48028 114.86752 12848 ft 324 kts 89°
2026-04-29 20:07 -8.48016 114.88989 12639 ft 322 kts 90°
2026-04-29 20:08 -8.48010 114.91238 12505 ft 318 kts 90°
2026-04-29 20:08 -8.48009 114.92750 12381 ft 318 kts 90°
2026-04-29 20:08 -8.48011 114.95726 12107 ft 322 kts 90°
2026-04-29 20:08 -8.48014 114.97995 11904 ft 324 kts 90°
2026-04-29 20:09 -8.48018 115.00271 11696 ft 323 kts 90°
2026-04-29 20:09 -8.48021 115.02535 11486 ft 321 kts 90°
2026-04-29 20:09 -8.48024 115.04782 11280 ft 320 kts 90°
2026-04-29 20:09 -8.48027 115.07026 11078 ft 318 kts 90°
2026-04-29 20:10 -8.48030 115.09252 10871 ft 317 kts 90°
2026-04-29 20:10 -8.48035 115.11481 10673 ft 316 kts 90°
2026-04-29 20:10 -8.48039 115.13678 10448 ft 310 kts 90°
2026-04-29 20:10 -8.48044 115.15830 10241 ft 304 kts 90°
2026-04-29 20:11 -8.48048 115.17941 10040 ft 298 kts 90°
2026-04-29 20:11 -8.48052 115.20001 9985 ft 287 kts 90°
2026-04-29 20:11 -8.48056 115.22011 9668 ft 286 kts 90°
2026-04-29 20:11 -8.48059 115.24004 9446 ft 282 kts 90°
2026-04-29 20:12 -8.48062 115.25971 9239 ft 277 kts 90°
2026-04-29 20:12 -8.48066 115.27907 9062 ft 275 kts 90°
2026-04-29 20:12 -8.48069 115.29835 8877 ft 274 kts 90°
2026-04-29 20:12 -8.48072 115.31757 8703 ft 273 kts 90°
2026-04-29 20:13 -8.48075 115.33673 8522 ft 272 kts 90°
2026-04-29 20:13 -8.48078 115.35581 8330 ft 271 kts 90°
2026-04-29 20:13 -8.48384 115.37444 8132 ft 272 kts 114°
2026-04-29 20:13 -8.49536 115.38953 7903 ft 277 kts 141°
2026-04-29 20:14 -8.51281 115.39778 7563 ft 280 kts 168°
2026-04-29 20:14 -8.53225 115.39923 7228 ft 281 kts 179°
2026-04-29 20:14 -8.55190 115.39912 6864 ft 284 kts 180°
2026-04-29 20:14 -8.57173 115.39883 6489 ft 285 kts 179°
2026-04-29 20:15 -8.59146 115.39863 6121 ft 279 kts 179°
2026-04-29 20:15 -8.61041 115.39847 5744 ft 265 kts 178°
2026-04-29 20:15 -8.62844 115.39838 5396 ft 253 kts 178°
2026-04-29 20:15 -8.64568 115.39834 5062 ft 242 kts 178°
2026-04-29 20:16 -8.66220 115.39833 4757 ft 233 kts 178°
2026-04-29 20:16 -8.67818 115.39832 4454 ft 228 kts 178°
2026-04-29 20:16 -8.69393 115.39832 4182 ft 225 kts 178°
2026-04-29 20:16 -8.70965 115.39832 3902 ft 226 kts 178°
2026-04-29 20:17 -8.72509 115.39519 3585 ft 231 kts 207°
2026-04-29 20:17 -8.73620 115.38413 3304 ft 228 kts 241°
2026-04-29 20:17 -8.74035 115.36901 3008 ft 222 kts 267°
2026-04-29 20:17 -8.74074 115.35363 2731 ft 217 kts 267°
2026-04-29 20:18 -8.74147 115.33861 2509 ft 210 kts 266°
2026-04-29 20:18 -8.74211 115.32419 2353 ft 201 kts 266°
2026-04-29 20:18 -8.74266 115.31048 2236 ft 190 kts 266°
2026-04-29 20:18 -8.74318 115.29752 2067 ft 180 kts 266°
2026-04-29 20:19 -8.74366 115.28532 1964 ft 171 kts 266°
2026-04-29 20:19 -8.74418 115.27308 1742 ft 176 kts 266°
2026-04-29 20:19 -8.74466 115.26075 1556 ft 177 kts 266°
2026-04-29 20:19 -8.74534 115.24781 1256 ft 189 kts 266°
2026-04-29 20:20 -8.74583 115.23454 1072 ft 189 kts 267°
2026-04-29 20:20 -8.74592 115.22135 833 ft 188 kts 267°
2026-04-29 20:20 -8.74654 115.20815 519 ft 184 kts 264°
2026-04-29 20:20 -8.74713 115.19625 391 ft 158 kts 263°
2026-04-29 20:21 -8.74758 115.18565 143 ft 144 kts 262°
2026-04-29 20:21 -8.74811 115.17597 29 ft 128 kts 265°
2026-04-29 20:21 -8.74844 115.16851 26 ft 84 kts 268°
2026-04-29 20:21 -8.74826 115.16419 28 ft 36 kts 289°
2026-04-29 20:22 -8.74753 115.16290 30 ft 11 kts 346°
2026-04-29 20:22 -8.74704 115.16319 32 ft 7 kts 65°
2026-04-29 20:22 -8.74692 115.16364 32 ft 7 kts 70°
2026-04-29 20:22 -8.74651 115.16377 32 ft 7 kts 352°
2026-04-29 20:23 -8.74605 115.16373 32 ft 7 kts
2026-04-29 20:23 -8.74573 115.16372 32 ft 0 kts 358°